Powrót do katalogu

STARLINK-5681

AktywnyŁącznośćVLEO
NORAD 55469·PAYLOAD·🇺🇸 United States

Wystrzelony Feb 2, 2023 z Cape Canaveral Space Force Station

Loading…

Następne Przeloty (najbliższe 24 godziny)

TLE

ŚwieżeSource: CelesTrak SupGP

Epoka: Sep 14, 2026, 21:50 UTC

1 55469C 23015W   26257.91020833 -.00039176  00000+0 -14188-2 0  2576
2 55469  43.0015 339.9968 0001508 272.0498  34.1714 15.27602273    13

Śledź STARLINK-5681 w czasie rzeczywistym z AllMySat

Download on the App Store